Theta_e
322 323 326 334 333 330 336 335 332 334 330 325 323 322 319 322 326 323 327 329 328 331 332 333 324 321 324 322 321 319 319 318 317 316 314 312 314 315 313 319 316 316 318 318 318 320 316 309 306
324 325 332 336 335 336 334 332 334 331 330 328 323 323 321 322 324 327 328 328 328 329 330 329 326 325 323 322 322 321 319 317 317 316 315 317 321 320 319 319 314 315 317 317 323 323 321 318 310
323 326 332 332 333 335 332 331 331 330 330 326 322 323 323 323 324 325 326 326 326 326 327 325 323 323 323 323 322 320 318 316 315 315 316 325 328 327 327 321 319 317 316 326 327 325 325 323 320
323 329 333 333 334 331 331 330 328 327 330 325 324 323 324 324 324 324 325 325 324 322 322 322 323 323 323 323 321 319 318 318 318 316 322 328 326 326 322 322 319 322 320 327 327 327 327 327 324
327 333 331 331 331 329 326 329 328 326 326 324 323 323 324 325 324 325 325 324 322 319 319 320 323 324 324 323 321 320 320 320 320 317 321 322 321 319 322 322 321 320 322 325 326 327 325 326 326
331 327 327 330 328 327 326 330 328 326 326 324 323 323 324 325 325 325 324 323 320 319 318 320 323 324 324 322 320 321 321 320 320 319 322 323 323 322 320 323 326 324 322 323 326 326 325 325 326
327 324 328 327 329 328 327 328 326 325 326 325 324 323 325 325 325 324 324 322 319 320 319 320 322 324 323 321 321 322 321 321 319 322 324 324 323 323 322 321 321 320 321 322 323 323 324 323 326
328 324 328 327 329 327 327 327 327 327 326 326 324 323 324 326 325 324 324 321 319 320 320 321 321 323 322 321 322 322 321 319 317 324 325 325 325 324 323 324 321 320 319 323 324 325 323 324 324
328 325 326 327 327 326 326 326 327 328 328 327 326 326 326 326 326 324 324 321 320 321 321 322 322 322 322 322 322 322 321 316 318 323 325 325 325 324 325 322 320 317 316 316 319 320 319 322 323
327 325 325 324 324 325 325 327 327 327 327 327 325 326 326 325 325 325 324 322 322 322 321 322 322 322 321 322 322 322 318 317 319 321 324 325 325 325 323 322 319 318 318 320 322 324 325 323 323
326 327 326 325 326 327 327 328 328 326 324 327 327 329 328 326 325 325 324 324 325 323 321 321 322 322 322 322 322 322 317 321 323 323 324 325 325 326 325 323 321 321 321 322 322 322 324 326 323
326 326 327 326 326 327 326 328 328 328 327 328 329 329 327 325 325 325 325 324 324 323 322 322 322 322 322 322 322 320 318 323 324 325 325 325 325 325 323 323 323 323 321 321 320 321 321 323 323
325 325 327 327 327 327 327 327 327 328 329 329 328 326 326 327 325 325 325 324 325 324 323 322 322 322 322 322 323 317 321 325 325 325 327 327 325 324 323 324 324 324 322 321 320 320 321 321 322
322 325 325 326 326 325 326 325 326 327 328 327 327 327 327 326 325 325 325 325 325 324 323 322 322 322 322 323 320 318 323 326 326 326 327 327 326 325 324 323 324 325 323 322 322 321 321 321 322
317 316 315 317 318 319 321 321 322 324 325 325 325 326 326 326 325 325 325 324 325 324 323 322 322 322 322 323 317 321 325 327 327 326 326 326 325 326 326 325 324 325 324 322 323 322 321 321 321
316 315 317 316 318 318 320 319 320 322 323 324 325 325 326 326 326 325 325 324 324 324 323 322 322 323 324 320 318 323 326 326 327 327 325 325 325 325 326 325 324 325 323 323 323 322 321 321 322
314 315 314 314 316 317 318 318 319 322 323 323 323 325 325 326 325 326 325 324 324 324 322 322 323 324 323 317 321 324 325 324 326 326 327 326 325 326 326 326 324 324 323 323 323 322 321 322 323
314 314 314 314 317 315 316 317 318 320 321 321 323 324 325 325 326 325 324 324 324 323 322 323 324 324 319 319 324 325 324 324 326 327 326 325 325 325 325 324 324 323 322 323 322 322 321 323 321
314 314 314 316 318 318 317 318 320 320 321 320 322 323 324 325 326 324 324 323 323 322 322 324 324 322 318 323 325 323 322 323 326 326 326 325 325 325 325 324 323 322 322 323 321 321 322 323 323
316 315 316 317 318 319 318 319 319 319 319 321 322 323 325 325 326 324 324 323 321 322 324 324 323 319 319 324 324 324 323 325 327 328 326 326 324 324 324 322 322 323 324 322 320 321 323 324 324
318 318 317 318 318 318 319 318 319 320 320 321 323 324 325 327 326 325 324 321 321 323 324 324 322 318 320 325 325 325 324 326 327 326 325 324 324 321 322 323 324 324 323 321 320 322 325 324 324
318 319 320 320 318 317 318 321 319 320 320 320 322 324 326 326 325 325 324 322 323 324 324 324 321 318 321 325 325 325 325 325 325 324 325 324 325 324 324 323 323 323 322 321 321 323 324 324 324
317 318 320 318 316 317 318 320 320 319 321 321 320 323 324 323 323 324 324 323 324 324 325 323 320 318 322 325 325 325 324 325 326 325 326 327 325 324 322 323 323 323 321 321 322 323 324 324 324
316 316 316 316 316 318 318 320 320 320 321 321 320 323 323 323 324 324 323 324 325 325 324 323 319 319 323 325 325 324 324 324 324 326 327 326 327 324 324 324 323 324 323 321 322 324 324 322 324
314 313 313 315 317 319 318 319 320 320 320 321 321 322 323 324 325 324 323 324 325 325 324 323 318 320 324 326 325 323 324 324 325 324 327 326 325 326 324 324 323 323 323 321 322 323 324 322 323
313 313 314 316 319 322 319 322 321 320 321 323 322 322 323 324 325 324 324 325 325 325 325 322 317 323 325 326 324 324 326 325 325 325 326 326 326 326 326 324 323 323 323 321 320 322 324 322 324
313 314 313 316 319 320 320 320 320 320 320 321 321 323 323 324 325 325 325 325 325 326 325 322 321 326 326 327 325 327 327 325 324 325 326 326 326 326 325 324 323 324 323 322 322 323 323 324 324
313 313 314 314 320 323 321 322 322 322 322 324 323 322 323 324 325 325 325 325 326 326 324 321 323 325 327 326 325 327 327 325 325 325 324 326 326 326 326 324 323 324 325 324 324 324 323 325 325
310 314 313 313 315 319 321 321 319 321 321 323 322 323 324 325 325 325 325 326 326 326 323 321 325 326 326 326 325 327 326 326 325 325 325 326 326 326 326 326 324 324 324 325 325 325 325 324 325
313 311 312 316 315 315 318 320 318 320 320 321 322 324 324 325 325 325 325 326 327 325 323 322 325 326 326 326 326 328 325 326 327 325 326 325 325 325 326 326 325 325 324 324 324 324 324 324 322
Wind_Speed
9 9 7 4 3 4 4 5 2 5 3 3 2 7 8 6 7 5 5 15 12 17 15 21 20 14 9 8 9 9 10 11 11 11 12 13 12 12 14 12 12 11 10 10 9 10 12 13 16
8 8 4 3 4 0 5 4 5 7 9 11 6 6 3 4 7 4 13 15 11 15 15 15 17 15 11 11 11 10 10 11 12 13 13 13 13 13 13 13 15 14 12 11 10 9 10 12 13
9 5 1 3 3 5 4 5 5 14 19 9 3 7 5 4 8 5 7 12 11 14 14 16 15 12 12 11 10 8 9 9 10 13 13 12 14 15 15 14 15 16 15 13 12 12 12 12 12
6 3 2 2 6 6 5 7 2 8 11 8 8 5 5 9 5 6 10 11 9 10 13 16 14 14 13 13 10 7 7 8 11 12 10 14 17 18 18 18 18 17 17 14 14 15 15 15 14
8 2 1 2 5 5 6 17 9 6 6 8 10 5 5 9 12 9 10 11 8 8 10 13 13 14 13 13 12 9 7 10 12 12 10 15 16 18 18 20 19 20 19 18 18 17 19 18 16
3 2 1 4 4 5 6 17 7 3 8 4 5 1 7 12 16 14 13 10 9 5 7 13 15 16 14 13 12 11 10 14 16 13 10 11 11 12 15 19 20 19 19 19 19 18 19 18 20
5 3 4 3 4 5 6 3 4 2 5 7 7 4 8 16 16 16 12 13 11 10 13 14 18 18 16 14 13 13 14 16 16 12 11 10 9 10 12 14 18 21 23 21 21 22 22 22 21
5 4 3 5 3 7 5 2 1 7 9 15 4 5 9 14 17 18 17 17 16 15 17 18 19 21 19 16 14 16 15 17 17 15 15 13 12 12 12 14 16 18 20 22 24 23 24 23 23
8 2 5 6 7 7 5 2 1 6 8 15 18 22 23 22 15 22 24 25 24 23 21 22 22 23 21 18 16 16 16 19 18 17 17 16 14 13 13 14 13 15 16 16 17 17 20 24 26
7 5 10 8 7 7 5 2 12 7 20 25 19 22 27 30 23 26 30 31 29 28 25 26 25 26 23 19 17 16 18 17 15 15 17 17 15 13 11 11 11 11 12 12 14 16 18 19 23
9 10 15 11 21 10 8 17 9 5 8 20 21 38 38 31 27 30 32 31 29 29 27 28 28 25 23 20 16 18 16 12 10 12 14 15 15 14 14 12 9 10 10 13 15 17 20 17 21
4 17 26 21 20 6 9 12 19 20 30 35 36 35 31 27 32 32 35 34 33 32 30 29 28 27 23 19 18 18 13 10 9 9 10 12 15 15 13 13 11 10 11 12 13 14 17 19 19
8 12 19 24 26 25 27 18 19 26 44 39 35 30 35 31 37 35 33 34 35 35 33 30 29 26 22 19 19 15 10 10 10 11 11 12 14 15 15 14 13 12 12 13 13 14 15 16 17
8 17 17 12 20 28 19 24 12 25 41 34 37 37 37 32 37 39 38 38 39 39 34 30 28 25 22 18 16 11 9 10 10 11 12 13 14 16 18 16 16 16 13 13 14 13 14 14 16
6 4 8 12 19 8 24 20 10 33 35 31 35 36 35 34 34 42 39 35 42 40 34 30 28 26 21 17 12 9 9 10 10 10 10 13 15 17 17 17 16 15 14 13 13 12 14 15 16
1 2 4 5 6 8 11 17 10 36 31 34 32 30 33 32 33 39 42 43 43 39 33 28 27 24 18 14 10 9 10 10 10 10 11 12 13 15 16 15 14 12 13 13 13 12 14 15 16
1 9 7 7 9 5 9 16 17 22 20 27 36 38 38 41 38 35 42 47 40 36 31 30 28 21 15 11 9 9 9 9 10 11 12 12 13 13 15 14 13 14 13 12 13 13 15 14 17
7 6 6 12 1 4 12 15 19 29 24 28 30 31 36 38 37 33 39 43 37 31 30 30 24 17 12 9 9 8 8 10 11 11 13 11 12 13 13 12 13 13 13 12 12 13 15 13 16
15 9 10 15 2 3 8 9 18 17 12 19 28 33 37 28 25 23 23 30 35 30 34 30 21 15 11 9 8 7 8 10 9 10 12 10 14 13 9 9 9 10 10 8 8 15 14 15 18
9 14 21 16 6 4 11 13 17 15 14 22 25 32 33 25 22 20 21 24 28 35 34 26 17 13 10 8 6 6 9 10 9 11 9 12 10 5 5 7 8 8 8 9 14 14 14 15 16
19 20 18 17 5 5 6 10 16 13 11 21 26 25 25 26 22 19 17 22 30 36 31 21 15 11 9 7 5 6 10 11 8 5 7 7 3 1 4 5 5 7 9 10 14 13 12 15 18
22 17 14 14 3 5 4 6 12 12 11 7 18 20 18 19 20 15 18 24 34 32 24 17 13 9 8 6 3 7 10 6 3 5 4 4 2 3 4 4 3 6 9 11 14 12 12 14 16
12 10 12 9 5 1 3 4 7 5 9 11 10 24 18 14 11 15 20 30 33 27 20 15 11 8 7 4 3 7 5 4 6 5 5 4 2 4 5 5 5 6 8 11 12 12 12 14 15
6 6 4 2 3 4 10 7 6 5 9 8 6 8 11 10 11 16 23 34 31 24 18 14 10 8 6 3 3 4 4 5 7 7 5 5 3 6 6 6 6 6 8 12 14 12 9 9 13
10 9 1 3 1 5 7 8 15 9 9 12 12 15 8 10 19 24 36 37 31 24 19 14 8 7 6 3 2 2 4 6 7 7 6 3 1 3 6 6 7 6 8 12 15 12 9 8 10
17 12 7 7 4 4 7 8 7 18 24 23 14 15 12 18 22 28 38 36 29 23 19 12 8 8 8 3 1 1 5 6 8 7 5 3 3 3 5 8 8 8 9 11 14 13 10 10 9
6 15 9 4 2 1 4 5 7 7 8 7 9 11 20 22 25 32 36 32 27 22 17 11 11 10 8 3 1 2 4 6 7 6 4 4 4 2 6 8 9 10 11 12 12 12 13 12 9
14 11 7 4 7 5 4 3 5 7 9 6 6 12 19 21 25 30 36 31 25 19 16 12 11 9 7 4 2 2 5 6 6 4 5 4 4 4 7 10 10 11 11 12 13 13 13 11 9
5 9 3 6 5 5 1 6 7 8 7 9 8 15 22 26 28 32 35 29 23 19 17 13 13 11 8 5 3 2 5 7 6 4 6 7 5 6 7 10 11 11 11 12 12 12 12 11 10
20 9 9 9 7 3 3 6 4 7 7 8 10 21 24 25 28 33 34 29 24 21 19 15 13 13 8 6 5 3 5 6 5 5 5 6 7 8 8 9 10 11 11 11 10 10 10 11 11
Wind_Direction
155 144 135 133 64 71 256 258 259 294 335 277 136 166 193 173 169 210 198 169 194 185 190 193 199 202 228 235 238 259 279 290 291 285 280 277 275 275 276 269 276 275 270 270 257 260 264 259 253
159 151 126 115 104 116 257 247 229 231 267 304 223 192 193 242 212 236 161 184 175 173 185 191 197 209 222 224 238 259 283 297 292 282 273 264 257 264 258 266 283 276 273 270 260 254 260 262 259
157 164 128 116 152 200 226 221 250 301 301 232 221 251 183 220 220 216 201 187 174 177 188 192 199 210 218 225 238 268 289 296 297 289 275 262 253 262 249 272 277 276 274 262 264 265 258 261 261
160 170 97 113 228 252 229 266 208 318 326 226 208 257 243 219 223 220 208 190 178 182 193 197 206 212 217 226 236 261 280 297 309 302 284 261 259 259 261 266 270 260 266 259 257 256 266 263 261
170 142 105 240 247 257 244 260 288 282 291 256 200 236 247 232 233 236 215 193 188 195 201 208 211 217 220 227 235 254 283 303 308 304 278 262 263 267 262 264 262 266 263 257 261 255 253 256 262
149 122 88 237 238 247 262 264 280 219 307 301 202 224 254 248 238 235 214 196 196 227 227 221 216 219 221 230 240 260 284 298 302 298 276 265 268 272 271 261 262 261 262 263 258 258 258 253 252
147 110 234 258 247 272 240 206 210 349 319 302 247 174 253 258 240 229 209 199 208 225 225 228 222 220 220 232 244 266 282 293 295 280 265 260 256 265 266 262 259 258 255 256 257 255 250 251 251
196 121 250 235 218 271 229 220 166 29 327 321 259 245 260 284 261 228 208 206 215 228 225 229 226 223 226 231 248 264 278 288 281 268 263 262 263 272 263 275 267 259 256 248 249 251 250 248 248
182 104 249 237 174 244 193 340 170 311 309 304 290 284 283 282 270 218 210 211 218 225 225 225 225 224 228 233 247 258 279 284 274 263 257 259 262 270 277 280 272 261 257 255 251 250 250 248 248
178 170 227 201 191 235 189 232 298 325 316 296 289 301 297 283 255 222 216 218 223 227 224 224 222 224 228 234 243 261 279 275 269 262 255 257 257 260 275 274 277 264 256 257 253 246 251 248 244
200 211 232 271 245 257 294 289 312 274 281 275 295 305 307 295 238 224 226 230 237 233 228 226 222 224 229 234 247 267 276 276 274 263 258 255 251 260 276 266 269 264 261 252 257 252 248 248 239
189 232 238 249 265 273 257 289 297 274 266 286 296 301 300 285 240 233 231 233 233 231 232 227 224 225 227 229 248 271 278 287 285 275 266 263 263 270 269 259 261 278 272 263 264 262 248 245 243
227 238 243 257 273 281 280 267 258 284 288 291 294 297 299 291 252 243 246 239 236 234 231 227 226 226 223 230 257 273 284 286 281 275 272 276 272 269 262 260 259 269 272 263 264 264 255 244 242
225 232 248 266 273 275 278 271 274 269 279 286 291 293 293 292 263 245 237 241 238 235 231 229 227 220 221 238 259 274 285 286 290 281 274 277 274 267 261 260 261 263 266 262 262 268 246 239 237
251 266 268 236 244 248 270 277 249 275 280 278 282 287 287 289 268 247 250 250 239 236 231 229 224 214 221 245 260 268 285 287 290 289 281 283 279 270 260 258 259 253 258 263 264 263 236 236 229
300 161 262 190 224 246 207 277 264 273 270 270 273 280 289 285 279 264 249 246 241 234 230 226 215 211 228 246 256 269 283 290 285 287 288 292 287 273 262 257 250 247 252 263 262 252 230 230 221
326 258 256 298 213 212 186 279 267 270 274 278 281 287 284 286 281 268 252 246 244 235 227 218 205 212 229 240 253 268 283 291 286 291 291 290 293 283 266 254 244 241 251 261 261 248 222 223 205
196 246 229 246 319 173 269 266 272 273 266 261 277 283 289 282 278 280 254 248 245 234 221 207 203 209 220 230 246 261 285 297 293 289 294 293 303 290 265 247 238 237 246 258 261 220 203 205 195
225 225 238 253 197 232 251 271 275 280 263 263 274 285 288 284 292 272 265 253 241 221 202 194 198 207 214 223 236 267 297 302 297 298 288 297 308 296 254 224 223 235 243 254 215 181 190 195 195
199 228 245 275 230 226 271 273 283 286 268 266 274 283 291 292 289 266 246 239 224 203 190 187 194 205 207 212 244 289 310 315 306 302 288 309 306 285 203 204 222 231 230 215 186 186 187 188 185
216 217 233 245 358 257 300 289 286 284 262 275 275 282 297 286 274 253 228 209 198 185 178 182 194 201 200 215 256 313 321 320 314 301 312 321 312 159 179 208 234 219 206 195 185 183 186 178 179
219 209 240 251 162 244 113 290 292 302 288 247 287 302 297 292 271 241 209 192 182 176 174 180 190 190 194 213 269 322 330 345 347 328 332 340 293 225 228 200 204 193 189 186 187 182 182 185 188
231 185 208 226 212 306 248 273 271 309 290 285 284 294 293 275 255 208 190 177 171 171 173 178 181 184 190 205 305 338 8 29 359 334 325 310 283 234 210 202 192 175 183 184 182 184 191 201 207
178 94 71 73 130 252 238 198 251 217 227 268 271 291 296 241 198 182 171 168 167 170 174 176 174 180 181 187 339 8 37 17 3 344 332 312 272 216 207 209 184 184 181 181 181 178 193 208 214
165 125 286 310 242 222 203 194 245 261 238 232 253 265 249 196 183 169 167 170 170 173 175 169 172 175 172 170 2 29 16 7 358 347 337 2 163 185 193 190 176 177 177 180 184 185 189 181 183
182 172 161 189 203 244 193 210 245 219 233 240 249 265 214 183 185 172 175 172 173 175 173 167 173 163 171 150 41 36 2 356 358 0 10 63 106 170 178 174 163 164 164 169 176 184 192 181 183
190 210 162 130 227 132 227 265 299 223 218 230 228 197 193 181 181 179 178 176 175 176 172 169 165 160 165 156 132 350 9 11 11 23 51 93 81 114 156 158 156 154 156 156 164 176 180 182 184
185 138 171 205 195 227 287 251 219 200 215 196 203 200 186 177 183 182 180 178 177 175 168 167 164 151 161 161 128 61 32 21 18 52 69 109 84 116 144 163 159 156 151 156 164 167 171 178 175
148 178 141 160 152 171 180 259 216 200 199 211 220 196 181 181 183 182 181 179 176 173 174 174 172 171 170 167 150 92 58 41 33 93 84 96 103 115 126 157 169 170 158 156 165 171 169 178 182
199 180 165 195 192 173 168 262 251 226 215 203 200 184 184 189 184 182 181 178 179 179 180 184 179 184 175 173 170 123 85 46 55 107 104 95 97 114 126 130 154 167 166 166 168 176 173 172 168